TimeHST,TemperatureF,Dew PointF,Humidity,Sea Level PressureIn,VisibilityMPH,Wind Direction,Wind SpeedMPH,Gust SpeedMPH,PrecipitationIn,Events,Conditions,WindDirDegrees,DateUTC
12:53 AM,68.0,61.0,78,30.01,10.0,WSW,6.9,-,N/A,,Partly Cloudy,240,2013-09-01 10:53:00
1:53 AM,69.1,60.1,73,30.00,10.0,West,5.8,-,N/A,,Overcast,260,2013-09-01 11:53:00
2:53 AM,68.0,60.1,76,29.98,10.0,SW,6.9,-,N/A,,Scattered Clouds,230,2013-09-01 12:53:00
3:53 AM,69.1,61.0,75,29.98,10.0,WSW,6.9,-,0.00,,Mostly Cloudy,240,2013-09-01 13:53:00
4:53 AM,69.1,60.1,73,29.97,10.0,WSW,6.9,-,N/A,,Mostly Cloudy,240,2013-09-01 14:53:00
5:24 AM,66.9,63.0,87,30.01,6.0,East,9.2,-,0.00,Rain,Light Rain,90,2013-09-01 15:24:00
5:53 AM,68.0,66.0,93,30.00,10.0,WSW,9.2,-,0.03,,Mostly Cloudy,250,2013-09-01 15:53:00
6:53 AM,71.1,64.9,81,30.01,10.0,WSW,5.8,-,N/A,,Mostly Cloudy,240,2013-09-01 16:53:00
7:53 AM,73.0,64.0,73,30.03,10.0,SW,5.8,-,N/A,,Mostly Cloudy,220,2013-09-01 17:53:00
8:53 AM,78.1,63.0,60,30.03,10.0,Calm,Calm,-,N/A,,Mostly Cloudy,0,2013-09-01 18:53:00
9:53 AM,82.0,64.0,54,30.03,10.0,Variable,4.6,-,N/A,,Mostly Cloudy,0,2013-09-01 19:53:00
10:53 AM,73.9,69.1,85,30.03,9.0,ESE,8.1,-,0.00,Rain,Light Rain,120,2013-09-01 20:53:00
11:53 AM,75.0,68.0,79,30.03,6.0,SSE,10.4,-,0.00,Rain,Light Rain,160,2013-09-01 21:53:00
12:53 PM,77.0,66.9,71,30.01,10.0,West,10.4,-,0.00,,Mostly Cloudy,260,2013-09-01 22:53:00
1:53 PM,80.1,66.0,62,29.99,10.0,ESE,4.6,-,N/A,,Mostly Cloudy,110,2013-09-01 23:53:00
2:53 PM,82.0,64.9,56,29.97,10.0,East,6.9,-,N/A,,Mostly Cloudy,80,2013-09-02 00:53:00
3:53 PM,80.1,63.0,56,29.96,10.0,East,10.4,-,N/A,,Mostly Cloudy,80,2013-09-02 01:53:00
4:53 PM,78.1,64.9,64,29.97,10.0,ENE,8.1,-,N/A,,Mostly Cloudy,70,2013-09-02 02:53:00
5:53 PM,78.1,66.0,66,29.98,10.0,ENE,4.6,-,N/A,,Scattered Clouds,70,2013-09-02 03:53:00
6:53 PM,75.9,64.9,69,30.00,10.0,Calm,Calm,-,N/A,,Scattered Clouds,0,2013-09-02 04:53:00
7:53 PM,73.0,66.0,79,30.02,10.0,WSW,5.8,-,N/A,,Scattered Clouds,240,2013-09-02 05:53:00
8:53 PM,72.0,66.0,81,30.04,10.0,WSW,6.9,-,N/A,,Scattered Clouds,240,2013-09-02 06:53:00
9:53 PM,71.1,63.0,75,30.05,10.0,WSW,5.8,-,0.00,,Mostly Cloudy,240,2013-09-02 07:53:00
10:53 PM,70.0,60.1,71,30.04,10.0,SW,6.9,-,0.00,,Mostly Cloudy,220,2013-09-02 08:53:00
11:53 PM,70.0,57.9,65,30.03,10.0,SW,8.1,-,N/A,,Scattered Clouds,230,2013-09-02 09:53:00